Location: Daouli
(14.8671°N, 3.2030°W)
Time: 02:17:15
(UTC+00:00)

Cosmos 1076 Rocket - Pass Details

Date: 29 October 2020
Orbit: 589 x 612 km, 82.5° (Epoch: 02 December)

Event Time Altitude Azimuth Distance (km) Brightness Sun altitude
Rises 18:35:47 0° 15° (NNE) 2,818 6.7 -12.8°
Reaches altitude 10° 18:38:19 10° 29° (NNE) 1,920 5.7 -13.4°
Maximum altitude 18:41:46 24° 84° (E) 1,240 4.5 -14.2°
Drops below altitude 10° 18:45:13 10° 138° (SE) 1,929 5.8 -15.0°
Sets 18:47:45 0° 152° (SSE) 2,834 6.8 -15.6°
